Location: Waco, TX
(31.5480°N, 97.1670°W)
Time: 02:08:51
(UTC-06:00)

ISS - Pass Details

Date: 31 January 2021
Orbit: 417 x 422 km, 51.6° (Epoch: 09 March)

Event Time Altitude Azimuth Distance (km) Brightness Sun altitude
Rises 12:20:32 0° 187° (S) 2,343 0.9 41.0°
Reaches altitude 10° 12:23:16 10° 162° (SSE) 1,486 0.2 41.1°
Maximum altitude 12:25:14 15° 126° (SE) 1,232 -0.7 41.1°
Drops below altitude 10° 12:27:12 10° 90° (E) 1,493 -0.8 41.2°
Sets 12:29:58 0° 66° (ENE) 2,362 -0.1 41.2°
